This is the latest recevied weather packets stored in our database for station/object KI5NXU. If no packets are shown the sender has not sent any weather packets the latest 10 day(s).
| Time | Temp. | Humidity | Pressure | Rain* | Wind** | Luminosity | Snow |
|---|---|---|---|---|---|---|---|
| 1787943360 | 38.33° C | 29% | 1017.3 hPa | 0 mm | - | 629 W/m² | - |
| 1787943055 | 38.33° C | 30% | 1017.5 hPa | 0 mm | - | 626 W/m² | - |
| 1787942750 | 38.89° C | 29% | 1017.5 hPa | 0 mm | - | 668 W/m² | - |
| 1787942445 | 39.44° C | 30% | 1017.7 hPa | 0 mm | - | 699 W/m² | - |
| 1787942144 | 38.89° C | 30% | 1017.7 hPa | 0 mm | - | 678 W/m² | - |
| 1787941840 | 38.33° C | 30% | 1017.7 hPa | 0 mm | - | 414 W/m² | - |
| 1787941539 | 37.22° C | 32% | 1017.8 hPa | 0 mm | - | 701 W/m² | - |
| 1787941234 | 37.22° C | 32% | 1017.8 hPa | 0 mm | - | 720 W/m² | - |
| 1787940928 | 38.33° C | 32% | 1017.9 hPa | 0 mm | - | 708 W/m² | - |
| 1787940626 | 38.33° C | 33% | 1018 hPa | 0 mm | - | 710 W/m² | - |
| 1787940326 | 38.33° C | 33% | 1018.1 hPa | 0 mm | - | 715 W/m² | - |
| 1787940020 | 37.22° C | 34% | 1018 hPa | 0 mm | - | 731 W/m² | - |
| 1787939719 | 37.78° C | 34% | 1018.1 hPa | 0 mm | - | 718 W/m² | - |
| 1787939420 | 37.22° C | 33% | 1018.3 hPa | 0 mm | - | 737 W/m² | - |
| 1787939115 | 37.78° C | 34% | 1018.4 hPa | 0 mm | - | 743 W/m² | - |
| 1787938814 | 37.22° C | 35% | 1018.4 hPa | 0 mm | - | 743 W/m² | - |
| 1787938509 | 37.22° C | 35% | 1018.3 hPa | 0 mm | - | 736 W/m² | - |
| 1787938205 | 37.22° C | 34% | 1018.3 hPa | 0 mm | - | 726 W/m² | - |
| 1787937899 | 37.22° C | 35% | 1018.4 hPa | 0 mm | - | 733 W/m² | - |
| 1787937595 | 36.67° C | 35% | 1018.3 hPa | 0 mm | - | 736 W/m² | - |
| 1787937291 | 36.67° C | 38% | 1018.4 hPa | 0 mm | - | 704 W/m² | - |
| 1787936987 | 36.11° C | 38% | 1018.5 hPa | 0 mm | - | 690 W/m² | - |
| 1787936685 | 36.67° C | 38% | 1018.5 hPa | 0 mm | - | 694 W/m² | - |
| 1787936379 | 36.67° C | 39% | 1018.6 hPa | 0 mm | - | 675 W/m² | - |
| 1787936075 | 36.67° C | 38% | 1018.5 hPa | 0 mm | - | 745 W/m² | - |
* Rain latest hour (hover to see other rain measurements)
** Current wind speed in m/s (hover to see current wind gust speed)